Time,TemperatureF,DewpointF,PressureIn,WindDirection,WindDirectionDegrees,WindSpeedMPH,WindSpeedGustMPH,Humidity,HourlyPrecipIn,Conditions,Clouds,dailyrainin,SolarRadiationWatts/m^2,SoftwareType,DateUTC
2013-05-24 00:01:00,37.0,37.0,-100.00,East,88,1.0,2.0,100,0.04,,,0.70,0.000000,,2013-05-24 07:01:00,
2013-05-24 00:32:00,37.0,37.0,-100.00,SSW,213,1.0,3.0,100,0.05,,,0.71,0.000000,,2013-05-24 07:32:00,
2013-05-24 00:42:00,37.0,37.0,-100.00,SSW,213,1.0,3.0,100,0.05,,,0.71,0.000000,,2013-05-24 07:42:00,
2013-05-24 00:52:00,37.0,37.0,-100.00,SSW,213,1.0,3.0,100,0.05,,,0.71,0.000000,,2013-05-24 07:52:00,
2013-05-24 01:02:00,37.0,37.0,-100.00,SSW,213,1.0,3.0,100,0.05,,,0.71,0.000000,,2013-05-24 08:02:00,
2013-05-24 01:33:00,35.0,35.0,-100.00,SW,223,1.0,4.0,100,0.01,,,0.70,0.000000,,2013-05-24 08:33:00,
2013-05-24 01:42:00,35.0,35.0,-100.00,SW,223,1.0,4.0,100,0.01,,,0.70,0.000000,,2013-05-24 08:42:00,
2013-05-24 01:52:00,35.0,35.0,-100.00,SW,223,1.0,4.0,100,0.01,,,0.70,0.000000,,2013-05-24 08:52:00,
2013-05-24 02:01:00,35.0,35.0,-100.00,SW,223,1.0,4.0,100,0.01,,,0.70,0.000000,,2013-05-24 09:01:00,
2013-05-24 02:33:00,36.0,36.0,-100.00,ENE,63,1.0,3.0,100,0.00,,,0.67,0.000000,,2013-05-24 09:33:00,
2013-05-24 02:42:00,36.0,36.0,-100.00,ENE,63,1.0,3.0,100,0.00,,,0.67,0.000000,,2013-05-24 09:42:00,
2013-05-24 02:53:00,36.0,36.0,-100.00,ENE,63,1.0,3.0,100,0.00,,,0.67,0.000000,,2013-05-24 09:53:00,
2013-05-24 03:02:00,36.0,36.0,-100.00,ENE,63,1.0,3.0,100,0.00,,,0.67,0.000000,,2013-05-24 10:02:00,
2013-05-24 03:33:00,34.0,34.0,-100.00,ENE,62,0.0,2.0,100,0.01,,,0.67,0.000000,,2013-05-24 10:33:00,
2013-05-24 03:42:00,34.0,34.0,-100.00,ENE,62,0.0,2.0,100,0.01,,,0.67,0.000000,,2013-05-24 10:42:00,
2013-05-24 03:52:00,34.0,34.0,-100.00,ENE,62,0.0,2.0,100,0.01,,,0.67,0.000000,,2013-05-24 10:52:00,
2013-05-24 04:02:00,34.0,34.0,-100.00,ENE,62,0.0,2.0,100,0.01,,,0.67,0.000000,,2013-05-24 11:02:00,
2013-05-24 04:32:00,36.0,36.0,-100.00,SW,220,0.0,2.0,100,0.00,,,0.66,0.000000,,2013-05-24 11:32:00,
2013-05-24 04:42:00,36.0,36.0,-100.00,SW,220,0.0,2.0,100,0.00,,,0.66,0.000000,,2013-05-24 11:42:00,
2013-05-24 04:52:00,36.0,36.0,-100.00,SW,220,0.0,2.0,100,0.00,,,0.66,0.000000,,2013-05-24 11:52:00,
2013-05-24 05:01:00,36.0,36.0,-100.00,SW,220,0.0,2.0,100,0.00,,,0.66,0.000000,,2013-05-24 12:01:00,
2013-05-24 05:33:00,36.0,36.0,-100.00,North,353,1.0,2.0,100,0.03,,,0.68,0.000000,,2013-05-24 12:33:00,
2013-05-24 05:42:00,36.0,36.0,-100.00,North,353,1.0,2.0,100,0.03,,,0.68,0.000000,,2013-05-24 12:42:00,
2013-05-24 05:52:00,36.0,36.0,-100.00,North,353,1.0,2.0,100,0.03,,,0.68,0.000000,,2013-05-24 12:52:00,
2013-05-24 06:02:00,36.0,36.0,-100.00,North,353,1.0,2.0,100,0.03,,,0.68,0.000000,,2013-05-24 13:02:00,
2013-05-24 06:32:00,36.0,36.0,-100.00,NE,56,0.0,1.0,100,0.02,,,0.70,6.000000,,2013-05-24 13:32:00,
2013-05-24 06:42:00,36.0,36.0,-100.00,NE,56,0.0,1.0,100,0.02,,,0.70,6.000000,,2013-05-24 13:42:00,
2013-05-24 06:52:00,36.0,36.0,-100.00,NE,56,0.0,1.0,100,0.02,,,0.70,6.000000,,2013-05-24 13:52:00,
2013-05-24 07:01:00,36.0,36.0,-100.00,NE,56,0.0,1.0,100,0.02,,,0.70,6.000000,,2013-05-24 14:01:00,
2013-05-24 07:32:00,36.0,36.0,-100.00,SSE,157,0.0,1.0,100,0.00,,,-99.99,59.000000,,2013-05-24 14:32:00,
2013-05-24 07:42:00,36.0,36.0,-100.00,SSE,157,0.0,1.0,100,0.00,,,-99.99,59.000000,,2013-05-24 14:42:00,
2013-05-24 07:52:00,36.0,36.0,-100.00,SSE,157,0.0,1.0,100,0.00,,,-99.99,59.000000,,2013-05-24 14:52:00,
2013-05-24 08:02:00,36.0,36.0,-100.00,SSE,157,0.0,1.0,100,0.00,,,-99.99,59.000000,,2013-05-24 15:02:00,
2013-05-24 08:33:00,39.0,39.0,-100.00,NNW,338,1.0,3.0,100,0.00,,,0.64,161.000000,,2013-05-24 15:33:00,
2013-05-24 08:43:00,39.0,39.0,-100.00,NNW,338,1.0,3.0,100,0.00,,,0.64,161.000000,,2013-05-24 15:43:00,
2013-05-24 08:52:00,39.0,39.0,-100.00,NNW,338,1.0,3.0,100,0.00,,,0.64,161.000000,,2013-05-24 15:52:00,
2013-05-24 09:03:00,39.0,39.0,-100.00,NNW,338,1.0,3.0,100,0.00,,,0.64,161.000000,,2013-05-24 16:03:00,
2013-05-24 09:32:00,43.0,42.0,-100.00,SSW,199,1.0,5.0,96,0.00,,,-99.99,244.000000,,2013-05-24 16:32:00,
2013-05-24 09:42:00,43.0,42.0,-100.00,SSW,199,1.0,5.0,96,0.00,,,-99.99,244.000000,,2013-05-24 16:42:00,
2013-05-24 09:52:00,43.0,42.0,-100.00,SSW,199,1.0,5.0,96,0.00,,,-99.99,244.000000,,2013-05-24 16:52:00,
2013-05-24 10:01:00,43.0,42.0,-100.00,SSW,199,1.0,5.0,96,0.00,,,-99.99,244.000000,,2013-05-24 17:01:00,
2013-05-24 10:32:00,46.0,41.0,-100.00,ESE,105,2.0,6.0,83,0.00,,,0.50,469.000000,,2013-05-24 17:32:00,
2013-05-24 10:42:00,46.0,41.0,-100.00,ESE,105,2.0,6.0,83,0.00,,,0.50,469.000000,,2013-05-24 17:42:00,
2013-05-24 10:52:00,46.0,41.0,-100.00,ESE,105,2.0,6.0,83,0.00,,,0.50,469.000000,,2013-05-24 17:52:00,
2013-05-24 11:01:00,46.0,41.0,-100.00,ESE,105,2.0,6.0,83,0.00,,,0.50,469.000000,,2013-05-24 18:01:00,
2013-05-24 11:32:00,49.0,43.0,-100.00,SSW,205,2.0,11.0,81,0.00,,,0.39,614.000000,,2013-05-24 18:32:00,
2013-05-24 11:42:00,49.0,43.0,-100.00,SSW,205,2.0,11.0,81,0.00,,,0.39,614.000000,,2013-05-24 18:42:00,
2013-05-24 11:52:00,49.0,43.0,-100.00,SSW,205,2.0,11.0,81,0.00,,,0.39,614.000000,,2013-05-24 18:52:00,
2013-05-24 12:01:00,49.0,43.0,-100.00,SSW,205,2.0,11.0,81,0.00,,,0.39,614.000000,,2013-05-24 19:01:00,
2013-05-24 12:32:00,50.0,40.0,-100.00,SW,221,2.0,11.0,68,0.00,,,0.31,786.000000,,2013-05-24 19:32:00,
2013-05-24 12:42:00,50.0,40.0,-100.00,SW,221,2.0,11.0,68,0.00,,,0.31,786.000000,,2013-05-24 19:42:00,
2013-05-24 12:52:00,50.0,40.0,-100.00,SW,221,2.0,11.0,68,0.00,,,0.31,786.000000,,2013-05-24 19:52:00,
2013-05-24 13:01:00,50.0,40.0,-100.00,SW,221,2.0,11.0,68,0.00,,,0.31,786.000000,,2013-05-24 20:01:00,
2013-05-24 13:32:00,47.0,44.0,-100.00,South,191,1.0,10.0,89,0.03,,,0.28,680.000000,,2013-05-24 20:32:00,
2013-05-24 13:42:00,47.0,44.0,-100.00,South,191,1.0,10.0,89,0.03,,,0.28,680.000000,,2013-05-24 20:42:00,
2013-05-24 13:52:00,47.0,44.0,-100.00,South,191,1.0,10.0,89,0.03,,,0.28,680.000000,,2013-05-24 20:52:00,
2013-05-24 14:01:00,47.0,44.0,-100.00,South,191,1.0,10.0,89,0.03,,,0.28,680.000000,,2013-05-24 21:01:00,
2013-05-24 14:33:00,52.0,44.0,-100.00,ESE,111,2.0,7.0,74,0.00,,,0.25,829.000000,,2013-05-24 21:33:00,
2013-05-24 14:43:00,52.0,44.0,-100.00,ESE,111,2.0,7.0,74,0.00,,,0.25,829.000000,,2013-05-24 21:43:00,
2013-05-24 14:53:00,52.0,44.0,-100.00,ESE,111,2.0,7.0,74,0.00,,,0.25,829.000000,,2013-05-24 21:53:00,
2013-05-24 15:02:00,52.0,44.0,-100.00,ESE,111,2.0,7.0,74,0.00,,,0.25,829.000000,,2013-05-24 22:02:00,
2013-05-24 15:33:00,48.0,43.0,-100.00,NNE,19,2.0,14.0,84,0.02,,,0.25,396.000000,,2013-05-24 22:33:00,
2013-05-24 15:42:00,48.0,43.0,-100.00,NNE,19,2.0,14.0,84,0.02,,,0.25,396.000000,,2013-05-24 22:42:00,
2013-05-24 15:52:00,48.0,43.0,-100.00,NNE,19,2.0,14.0,84,0.02,,,0.25,396.000000,,2013-05-24 22:52:00,
2013-05-24 16:02:00,48.0,43.0,-100.00,NNE,19,2.0,14.0,84,0.02,,,0.25,396.000000,,2013-05-24 23:02:00,
2013-05-24 16:32:00,50.0,47.0,-100.00,WNW,297,2.0,13.0,89,0.03,,,0.28,346.000000,,2013-05-24 23:32:00,
2013-05-24 16:42:00,50.0,47.0,-100.00,WNW,297,2.0,13.0,89,0.03,,,0.28,346.000000,,2013-05-24 23:42:00,
2013-05-24 16:52:00,50.0,47.0,-100.00,WNW,297,2.0,13.0,89,0.03,,,0.28,346.000000,,2013-05-24 23:52:00,
2013-05-24 17:01:00,50.0,47.0,-100.00,WNW,297,2.0,13.0,89,0.03,,,0.28,346.000000,,2013-05-25 00:01:00,
2013-05-24 17:32:00,48.0,44.0,-100.00,NNE,22,1.0,9.0,86,0.00,,,0.28,273.000000,,2013-05-25 00:32:00,
2013-05-24 17:42:00,48.0,44.0,-100.00,NNE,22,1.0,9.0,86,0.00,,,0.28,273.000000,,2013-05-25 00:42:00,
2013-05-24 17:52:00,48.0,44.0,-100.00,NNE,22,1.0,9.0,86,0.00,,,0.28,273.000000,,2013-05-25 00:52:00,
2013-05-24 18:01:00,48.0,44.0,-100.00,NNE,22,1.0,9.0,86,0.00,,,0.28,273.000000,,2013-05-25 01:01:00,
2013-05-24 18:32:00,49.0,42.0,-100.00,NW,309,1.0,8.0,76,0.00,,,0.28,268.000000,,2013-05-25 01:32:00,
2013-05-24 18:42:00,49.0,42.0,-100.00,NW,309,1.0,8.0,76,0.00,,,0.28,268.000000,,2013-05-25 01:42:00,
2013-05-24 18:52:00,49.0,42.0,-100.00,NW,309,1.0,8.0,76,0.00,,,0.28,268.000000,,2013-05-25 01:52:00,
2013-05-24 19:01:00,49.0,42.0,-100.00,NW,309,1.0,8.0,76,0.00,,,0.28,268.000000,,2013-05-25 02:01:00,
2013-05-24 19:32:00,46.0,42.0,-100.00,NNE,31,1.0,5.0,86,0.00,,,0.28,129.000000,,2013-05-25 02:32:00,
2013-05-24 19:42:00,46.0,42.0,-100.00,NNE,31,1.0,5.0,86,0.00,,,0.28,129.000000,,2013-05-25 02:42:00,
2013-05-24 19:52:00,46.0,42.0,-100.00,NNE,31,1.0,5.0,86,0.00,,,0.28,129.000000,,2013-05-25 02:52:00,
2013-05-24 20:01:00,46.0,42.0,-100.00,NNE,31,1.0,5.0,86,0.00,,,0.28,129.000000,,2013-05-25 03:01:00,
2013-05-24 20:33:00,44.0,42.0,-100.00,NNW,329,1.0,6.0,93,0.00,,,0.28,64.000000,,2013-05-25 03:33:00,
2013-05-24 20:43:00,44.0,42.0,-100.00,NNW,329,1.0,6.0,93,0.00,,,0.28,64.000000,,2013-05-25 03:43:00,
2013-05-24 20:53:00,44.0,42.0,-100.00,NNW,329,1.0,6.0,93,0.00,,,0.28,64.000000,,2013-05-25 03:53:00,
2013-05-24 21:02:00,44.0,42.0,-100.00,NNW,329,1.0,6.0,93,0.00,,,0.28,64.000000,,2013-05-25 04:02:00,
2013-05-24 21:33:00,42.0,42.0,-100.00,NE,49,1.0,2.0,100,0.00,,,0.27,5.000000,,2013-05-25 04:33:00,
2013-05-24 21:43:00,42.0,42.0,-100.00,NE,49,1.0,2.0,100,0.00,,,0.27,5.000000,,2013-05-25 04:43:00,
2013-05-24 21:52:00,42.0,42.0,-100.00,NE,49,1.0,2.0,100,0.00,,,0.27,5.000000,,2013-05-25 04:52:00,
2013-05-24 22:02:00,42.0,42.0,-100.00,NE,49,1.0,2.0,100,0.00,,,0.27,5.000000,,2013-05-25 05:02:00,
2013-05-24 22:32:00,40.0,40.0,-100.00,SSE,148,1.0,1.0,100,0.00,,,0.24,0.000000,,2013-05-25 05:32:00,
2013-05-24 22:43:00,40.0,40.0,-100.00,SSE,148,1.0,1.0,100,0.00,,,0.24,0.000000,,2013-05-25 05:43:00,
2013-05-24 22:52:00,40.0,40.0,-100.00,SSE,148,1.0,1.0,100,0.00,,,0.24,0.000000,,2013-05-25 05:52:00,
2013-05-24 23:01:00,40.0,40.0,-100.00,SSE,148,1.0,1.0,100,0.00,,,0.24,0.000000,,2013-05-25 06:01:00,
2013-05-24 23:32:00,39.0,39.0,-100.00,North,354,0.0,2.0,100,0.00,,,0.20,0.000000,,2013-05-25 06:32:00,
2013-05-24 23:42:00,39.0,39.0,-100.00,North,354,0.0,2.0,100,0.00,,,0.20,0.000000,,2013-05-25 06:42:00,
2013-05-24 23:52:00,39.0,39.0,-100.00,North,354,0.0,2.0,100,0.00,,,0.20,0.000000,,2013-05-25 06:52:00,